Index of /20260505/WXO-DD/model_gdps/15km/00/129
Name Last modified Size Description
Parent Directory -
20260505T00Z_MSC_GDPS_AbsoluteVorticity_IsbL-0200_LatLon0.15_PT129H.grib2 2026-05-05 04:27 1.5M
20260505T00Z_MSC_GDPS_AbsoluteVorticity_IsbL-0250_LatLon0.15_PT129H.grib2 2026-05-05 04:27 1.3M
20260505T00Z_MSC_GDPS_AbsoluteVorticity_IsbL-0500_LatLon0.15_PT129H.grib2 2026-05-05 04:27 1.5M
20260505T00Z_MSC_GDPS_AbsoluteVorticity_IsbL-0700_LatLon0.15_PT129H.grib2 2026-05-05 04:27 1.3M
20260505T00Z_MSC_GDPS_AbsoluteVorticity_IsbL-0850_LatLon0.15_PT129H.grib2 2026-05-05 04:27 1.6M
20260505T00Z_MSC_GDPS_AirTemp_AGL-120m_LatLon0.15_PT129H.grib2 2026-05-05 04:27 787K
20260505T00Z_MSC_GDPS_AirTemp_AGL-2m_LatLon0.15_PT129H.grib2 2026-05-05 04:27 1.0M
20260505T00Z_MSC_GDPS_AirTemp_AGL-40m_LatLon0.15_PT129H.grib2 2026-05-05 04:27 805K
20260505T00Z_MSC_GDPS_AirTemp_AGL-80m_LatLon0.15_PT129H.grib2 2026-05-05 04:27 795K
20260505T00Z_MSC_GDPS_AirTemp_IsbL-0001_LatLon0.15_PT129H.grib2 2026-05-05 04:27 669K
20260505T00Z_MSC_GDPS_AirTemp_IsbL-0005_LatLon0.15_PT129H.grib2 2026-05-05 04:27 538K
20260505T00Z_MSC_GDPS_AirTemp_IsbL-0010_LatLon0.15_PT129H.grib2 2026-05-05 04:27 703K
20260505T00Z_MSC_GDPS_AirTemp_IsbL-0020_LatLon0.15_PT129H.grib2 2026-05-05 04:27 724K
20260505T00Z_MSC_GDPS_AirTemp_IsbL-0030_LatLon0.15_PT129H.grib2 2026-05-05 04:27 839K
20260505T00Z_MSC_GDPS_AirTemp_IsbL-0050_LatLon0.15_PT129H.grib2 2026-05-05 04:27 887K
20260505T00Z_MSC_GDPS_AirTemp_IsbL-0100_LatLon0.15_PT129H.grib2 2026-05-05 04:27 966K
20260505T00Z_MSC_GDPS_AirTemp_IsbL-0150_LatLon0.15_PT129H.grib2 2026-05-05 04:27 1.0M
20260505T00Z_MSC_GDPS_AirTemp_IsbL-0175_LatLon0.15_PT129H.grib2 2026-05-05 04:27 968K
20260505T00Z_MSC_GDPS_AirTemp_IsbL-0200_LatLon0.15_PT129H.grib2 2026-05-05 04:27 1.0M
20260505T00Z_MSC_GDPS_AirTemp_IsbL-0225_LatLon0.15_PT129H.grib2 2026-05-05 04:27 969K
20260505T00Z_MSC_GDPS_AirTemp_IsbL-0250_LatLon0.15_PT129H.grib2 2026-05-05 04:27 1.0M
20260505T00Z_MSC_GDPS_AirTemp_IsbL-0275_LatLon0.15_PT129H.grib2 2026-05-05 04:27 1.0M
20260505T00Z_MSC_GDPS_AirTemp_IsbL-0300_LatLon0.15_PT129H.grib2 2026-05-05 04:27 948K
20260505T00Z_MSC_GDPS_AirTemp_IsbL-0350_LatLon0.15_PT129H.grib2 2026-05-05 04:27 932K
20260505T00Z_MSC_GDPS_AirTemp_IsbL-0400_LatLon0.15_PT129H.grib2 2026-05-05 04:27 945K
20260505T00Z_MSC_GDPS_AirTemp_IsbL-0450_LatLon0.15_PT129H.grib2 2026-05-05 04:27 965K
20260505T00Z_MSC_GDPS_AirTemp_IsbL-0500_LatLon0.15_PT129H.grib2 2026-05-05 04:27 1.0M
20260505T00Z_MSC_GDPS_AirTemp_IsbL-0550_LatLon0.15_PT129H.grib2 2026-05-05 04:27 798K
20260505T00Z_MSC_GDPS_AirTemp_IsbL-0600_LatLon0.15_PT129H.grib2 2026-05-05 04:27 892K
20260505T00Z_MSC_GDPS_AirTemp_IsbL-0650_LatLon0.15_PT129H.grib2 2026-05-05 04:27 920K
20260505T00Z_MSC_GDPS_AirTemp_IsbL-0700_LatLon0.15_PT129H.grib2 2026-05-05 04:27 950K
20260505T00Z_MSC_GDPS_AirTemp_IsbL-0750_LatLon0.15_PT129H.grib2 2026-05-05 04:27 1.0M
20260505T00Z_MSC_GDPS_AirTemp_IsbL-0800_LatLon0.15_PT129H.grib2 2026-05-05 04:27 1.1M
20260505T00Z_MSC_GDPS_AirTemp_IsbL-0850_LatLon0.15_PT129H.grib2 2026-05-05 04:27 1.1M
20260505T00Z_MSC_GDPS_AirTemp_IsbL-0875_LatLon0.15_PT129H.grib2 2026-05-05 04:27 1.2M
20260505T00Z_MSC_GDPS_AirTemp_IsbL-0900_LatLon0.15_PT129H.grib2 2026-05-05 04:27 1.1M
20260505T00Z_MSC_GDPS_AirTemp_IsbL-0925_LatLon0.15_PT129H.grib2 2026-05-05 04:27 1.1M
20260505T00Z_MSC_GDPS_AirTemp_IsbL-0950_LatLon0.15_PT129H.grib2 2026-05-05 04:27 1.1M
20260505T00Z_MSC_GDPS_AirTemp_IsbL-0970_LatLon0.15_PT129H.grib2 2026-05-05 04:27 1.1M
20260505T00Z_MSC_GDPS_AirTemp_IsbL-0985_LatLon0.15_PT129H.grib2 2026-05-05 04:27 1.1M
20260505T00Z_MSC_GDPS_AirTemp_IsbL-1000_LatLon0.15_PT129H.grib2 2026-05-05 04:27 1.1M
20260505T00Z_MSC_GDPS_AirTemp_IsbL-1015_LatLon0.15_PT129H.grib2 2026-05-05 04:27 1.1M
20260505T00Z_MSC_GDPS_Albedo_Sfc_LatLon0.15_PT129H.grib2 2026-05-05 04:27 244K
20260505T00Z_MSC_GDPS_CAPE_Sfc_LatLon0.15_PT129H.grib2 2026-05-05 04:27 4.1M
20260505T00Z_MSC_GDPS_CIN_Sfc_LatLon0.15_PT129H.grib2 2026-05-05 04:27 2.8M
20260505T00Z_MSC_GDPS_CloudWater_EAtm_LatLon0.15_PT129H.grib2 2026-05-05 04:27 540K
20260505T00Z_MSC_GDPS_ConvectivePrecip-Accum_Sfc_LatLon0.15_PT129H.grib2 2026-05-05 04:27 3.6M
20260505T00Z_MSC_GDPS_DewPointDepression_AGL-2m_LatLon0.15_PT129H.grib2 2026-05-05 04:27 755K
20260505T00Z_MSC_GDPS_DewPointDepression_IsbL-0010_LatLon0.15_PT129H.grib2 2026-05-05 04:27 66K
20260505T00Z_MSC_GDPS_DewPointDepression_IsbL-0020_LatLon0.15_PT129H.grib2 2026-05-05 04:27 88K
20260505T00Z_MSC_GDPS_DewPointDepression_IsbL-0030_LatLon0.15_PT129H.grib2 2026-05-05 04:27 103K
20260505T00Z_MSC_GDPS_DewPointDepression_IsbL-0050_LatLon0.15_PT129H.grib2 2026-05-05 04:27 386K
20260505T00Z_MSC_GDPS_DewPointDepression_IsbL-0100_LatLon0.15_PT129H.grib2 2026-05-05 04:27 399K
20260505T00Z_MSC_GDPS_DewPointDepression_IsbL-0150_LatLon0.15_PT129H.grib2 2026-05-05 04:27 507K
20260505T00Z_MSC_GDPS_DewPointDepression_IsbL-0175_LatLon0.15_PT129H.grib2 2026-05-05 04:27 602K
20260505T00Z_MSC_GDPS_DewPointDepression_IsbL-0200_LatLon0.15_PT129H.grib2 2026-05-05 04:27 688K
20260505T00Z_MSC_GDPS_DewPointDepression_IsbL-0225_LatLon0.15_PT129H.grib2 2026-05-05 04:27 774K
20260505T00Z_MSC_GDPS_DewPointDepression_IsbL-0250_LatLon0.15_PT129H.grib2 2026-05-05 04:27 871K
20260505T00Z_MSC_GDPS_DewPointDepression_IsbL-0275_LatLon0.15_PT129H.grib2 2026-05-05 04:27 893K
20260505T00Z_MSC_GDPS_DewPointDepression_IsbL-0300_LatLon0.15_PT129H.grib2 2026-05-05 04:27 934K
20260505T00Z_MSC_GDPS_DewPointDepression_IsbL-0350_LatLon0.15_PT129H.grib2 2026-05-05 04:27 952K
20260505T00Z_MSC_GDPS_DewPointDepression_IsbL-0400_LatLon0.15_PT129H.grib2 2026-05-05 04:27 972K
20260505T00Z_MSC_GDPS_DewPointDepression_IsbL-0450_LatLon0.15_PT129H.grib2 2026-05-05 04:27 1.0M
20260505T00Z_MSC_GDPS_DewPointDepression_IsbL-0500_LatLon0.15_PT129H.grib2 2026-05-05 04:27 1.0M
20260505T00Z_MSC_GDPS_DewPointDepression_IsbL-0550_LatLon0.15_PT129H.grib2 2026-05-05 04:27 1.0M
20260505T00Z_MSC_GDPS_DewPointDepression_IsbL-0600_LatLon0.15_PT129H.grib2 2026-05-05 04:27 1.0M
20260505T00Z_MSC_GDPS_DewPointDepression_IsbL-0650_LatLon0.15_PT129H.grib2 2026-05-05 04:27 1.1M
20260505T00Z_MSC_GDPS_DewPointDepression_IsbL-0700_LatLon0.15_PT129H.grib2 2026-05-05 04:27 1.1M
20260505T00Z_MSC_GDPS_DewPointDepression_IsbL-0750_LatLon0.15_PT129H.grib2 2026-05-05 04:27 1.1M
20260505T00Z_MSC_GDPS_DewPointDepression_IsbL-0800_LatLon0.15_PT129H.grib2 2026-05-05 04:27 1.2M
20260505T00Z_MSC_GDPS_DewPointDepression_IsbL-0850_LatLon0.15_PT129H.grib2 2026-05-05 04:27 1.2M
20260505T00Z_MSC_GDPS_DewPointDepression_IsbL-0875_LatLon0.15_PT129H.grib2 2026-05-05 04:27 1.1M
20260505T00Z_MSC_GDPS_DewPointDepression_IsbL-0900_LatLon0.15_PT129H.grib2 2026-05-05 04:27 1.0M
20260505T00Z_MSC_GDPS_DewPointDepression_IsbL-0925_LatLon0.15_PT129H.grib2 2026-05-05 04:27 1.0M
20260505T00Z_MSC_GDPS_DewPointDepression_IsbL-0950_LatLon0.15_PT129H.grib2 2026-05-05 04:27 1.0M
20260505T00Z_MSC_GDPS_DewPointDepression_IsbL-0970_LatLon0.15_PT129H.grib2 2026-05-05 04:27 1.0M
20260505T00Z_MSC_GDPS_DewPointDepression_IsbL-0985_LatLon0.15_PT129H.grib2 2026-05-05 04:27 1.0M
20260505T00Z_MSC_GDPS_DewPointDepression_IsbL-1000_LatLon0.15_PT129H.grib2 2026-05-05 04:27 957K
20260505T00Z_MSC_GDPS_DewPointDepression_IsbL-1015_LatLon0.15_PT129H.grib2 2026-05-05 04:27 898K
20260505T00Z_MSC_GDPS_DewPoint_AGL-2m_LatLon0.15_PT129H.grib2 2026-05-05 04:27 607K
20260505T00Z_MSC_GDPS_DownwardLongwaveRadiationFlux-Accum_Sfc_LatLon0.15_PT129H.grib2 2026-05-05 04:27 820K
20260505T00Z_MSC_GDPS_DownwardShortwaveRadiationFlux-Accum_NTAtm_LatLon0.15_PT129H.grib2 2026-05-05 04:27 185K
20260505T00Z_MSC_GDPS_DownwardShortwaveRadiationFlux-Accum_Sfc_LatLon0.15_PT129H.grib2 2026-05-05 04:27 1.0M
20260505T00Z_MSC_GDPS_FreezingRain-Accum1h_Sfc_LatLon0.15_PT129H.grib2 2026-05-05 04:27 47K
20260505T00Z_MSC_GDPS_FreezingRain-Accum3h_Sfc_LatLon0.15_PT129H.grib2 2026-05-05 04:27 55K
20260505T00Z_MSC_GDPS_FreezingRain-Accum_Sfc_LatLon0.15_PT129H.grib2 2026-05-05 04:27 413K
20260505T00Z_MSC_GDPS_GeopotentialHeight_IsbL-0001_LatLon0.15_PT129H.grib2 2026-05-05 04:27 424K
20260505T00Z_MSC_GDPS_GeopotentialHeight_IsbL-0005_LatLon0.15_PT129H.grib2 2026-05-05 04:27 487K
20260505T00Z_MSC_GDPS_GeopotentialHeight_IsbL-0010_LatLon0.15_PT129H.grib2 2026-05-05 04:27 474K
20260505T00Z_MSC_GDPS_GeopotentialHeight_IsbL-0020_LatLon0.15_PT129H.grib2 2026-05-05 04:27 409K
20260505T00Z_MSC_GDPS_GeopotentialHeight_IsbL-0030_LatLon0.15_PT129H.grib2 2026-05-05 04:27 415K
20260505T00Z_MSC_GDPS_GeopotentialHeight_IsbL-0050_LatLon0.15_PT129H.grib2 2026-05-05 04:27 577K
20260505T00Z_MSC_GDPS_GeopotentialHeight_IsbL-0100_LatLon0.15_PT129H.grib2 2026-05-05 04:27 619K
20260505T00Z_MSC_GDPS_GeopotentialHeight_IsbL-0150_LatLon0.15_PT129H.grib2 2026-05-05 04:27 638K
20260505T00Z_MSC_GDPS_GeopotentialHeight_IsbL-0175_LatLon0.15_PT129H.grib2 2026-05-05 04:27 641K
20260505T00Z_MSC_GDPS_GeopotentialHeight_IsbL-0200_LatLon0.15_PT129H.grib2 2026-05-05 04:27 645K
20260505T00Z_MSC_GDPS_GeopotentialHeight_IsbL-0225_LatLon0.15_PT129H.grib2 2026-05-05 04:27 641K
20260505T00Z_MSC_GDPS_GeopotentialHeight_IsbL-0250_LatLon0.15_PT129H.grib2 2026-05-05 04:27 650K
20260505T00Z_MSC_GDPS_GeopotentialHeight_IsbL-0275_LatLon0.15_PT129H.grib2 2026-05-05 04:27 647K
20260505T00Z_MSC_GDPS_GeopotentialHeight_IsbL-0300_LatLon0.15_PT129H.grib2 2026-05-05 04:27 645K
20260505T00Z_MSC_GDPS_GeopotentialHeight_IsbL-0350_LatLon0.15_PT129H.grib2 2026-05-05 04:27 633K
20260505T00Z_MSC_GDPS_GeopotentialHeight_IsbL-0400_LatLon0.15_PT129H.grib2 2026-05-05 04:27 625K
20260505T00Z_MSC_GDPS_GeopotentialHeight_IsbL-0450_LatLon0.15_PT129H.grib2 2026-05-05 04:27 613K
20260505T00Z_MSC_GDPS_GeopotentialHeight_IsbL-0500_LatLon0.15_PT129H.grib2 2026-05-05 04:27 535K
20260505T00Z_MSC_GDPS_GeopotentialHeight_IsbL-0550_LatLon0.15_PT129H.grib2 2026-05-05 04:27 527K
20260505T00Z_MSC_GDPS_GeopotentialHeight_IsbL-0600_LatLon0.15_PT129H.grib2 2026-05-05 04:27 524K
20260505T00Z_MSC_GDPS_GeopotentialHeight_IsbL-0650_LatLon0.15_PT129H.grib2 2026-05-05 04:27 693K
20260505T00Z_MSC_GDPS_GeopotentialHeight_IsbL-0700_LatLon0.15_PT129H.grib2 2026-05-05 04:27 690K
20260505T00Z_MSC_GDPS_GeopotentialHeight_IsbL-0750_LatLon0.15_PT129H.grib2 2026-05-05 04:27 700K
20260505T00Z_MSC_GDPS_GeopotentialHeight_IsbL-0800_LatLon0.15_PT129H.grib2 2026-05-05 04:27 711K
20260505T00Z_MSC_GDPS_GeopotentialHeight_IsbL-0850_LatLon0.15_PT129H.grib2 2026-05-05 04:27 718K
20260505T00Z_MSC_GDPS_GeopotentialHeight_IsbL-0875_LatLon0.15_PT129H.grib2 2026-05-05 04:27 727K
20260505T00Z_MSC_GDPS_GeopotentialHeight_IsbL-0900_LatLon0.15_PT129H.grib2 2026-05-05 04:27 728K
20260505T00Z_MSC_GDPS_GeopotentialHeight_IsbL-0925_LatLon0.15_PT129H.grib2 2026-05-05 04:27 738K
20260505T00Z_MSC_GDPS_GeopotentialHeight_IsbL-0950_LatLon0.15_PT129H.grib2 2026-05-05 04:27 746K
20260505T00Z_MSC_GDPS_GeopotentialHeight_IsbL-0970_LatLon0.15_PT129H.grib2 2026-05-05 04:27 756K
20260505T00Z_MSC_GDPS_GeopotentialHeight_IsbL-0985_LatLon0.15_PT129H.grib2 2026-05-05 04:27 771K
20260505T00Z_MSC_GDPS_GeopotentialHeight_IsbL-1000_LatLon0.15_PT129H.grib2 2026-05-05 04:27 605K
20260505T00Z_MSC_GDPS_GeopotentialHeight_IsbL-1015_LatLon0.15_PT129H.grib2 2026-05-05 04:27 622K
20260505T00Z_MSC_GDPS_Humidex_Sfc_LatLon0.15_PT129H.grib2 2026-05-05 04:27 5.3M
20260505T00Z_MSC_GDPS_IcePellets-Accum1h_Sfc_LatLon0.15_PT129H.grib2 2026-05-05 04:27 26K
20260505T00Z_MSC_GDPS_IcePellets-Accum3h_Sfc_LatLon0.15_PT129H.grib2 2026-05-05 04:27 29K
20260505T00Z_MSC_GDPS_IcePellets-Accum_Sfc_LatLon0.15_PT129H.grib2 2026-05-05 04:27 154K
20260505T00Z_MSC_GDPS_KIndex_Sfc_LatLon0.15_PT129H.grib2 2026-05-05 04:27 6.5M
20260505T00Z_MSC_GDPS_LatentHeatNetFlux_Sfc_LatLon0.15_PT129H.grib2 2026-05-05 04:27 739K
20260505T00Z_MSC_GDPS_LiftedIndex-MU-VT_IsbL-0500_LatLon0.15_PT129H.grib2 2026-05-05 04:27 5.4M
20260505T00Z_MSC_GDPS_NetLongwaveRadiationFlux-Accum_Sfc_LatLon0.15_PT129H.grib2 2026-05-05 04:27 1.0M
20260505T00Z_MSC_GDPS_NetShortwaveRadiationFlux-Accum_Sfc_LatLon0.15_PT129H.grib2 2026-05-05 04:27 1.0M
20260505T00Z_MSC_GDPS_O3MixingRatio_Sfc_LatLon0.15_PT129H.grib2 2026-05-05 04:47 2.2M
20260505T00Z_MSC_GDPS_O3_EAtm_LatLon0.15_PT129H.grib2 2026-05-05 04:47 2.4M
20260505T00Z_MSC_GDPS_PlanetaryBoundaryLayerHeight_Sfc_LatLon0.15_PT129H.grib2 2026-05-05 04:27 2.5M
20260505T00Z_MSC_GDPS_Precip-Accum1h_Sfc_LatLon0.15_PT129H.grib2 2026-05-05 04:27 3.3M
20260505T00Z_MSC_GDPS_Precip-Accum3h_Sfc_LatLon0.15_PT129H.grib2 2026-05-05 04:27 3.6M
20260505T00Z_MSC_GDPS_Precip-Accum_Sfc_LatLon0.15_PT129H.grib2 2026-05-05 04:27 5.2M
20260505T00Z_MSC_GDPS_PrecipRate_Sfc_LatLon0.15_PT129H.grib2 2026-05-05 04:27 3.0M
20260505T00Z_MSC_GDPS_PrecipType-Instant_Sfc_LatLon0.15_PT129H.grib2 2026-05-05 04:27 1.6M
20260505T00Z_MSC_GDPS_Pressure_MSL_LatLon0.15_PT129H.grib2 2026-05-05 04:27 828K
20260505T00Z_MSC_GDPS_Pressure_PVU-1.5_LatLon0.15_PT129H.grib2 2026-05-05 04:27 5.8M
20260505T00Z_MSC_GDPS_Pressure_PVU-1_LatLon0.15_PT129H.grib2 2026-05-05 04:27 6.0M
20260505T00Z_MSC_GDPS_Pressure_PVU-2_LatLon0.15_PT129H.grib2 2026-05-05 04:27 5.6M
20260505T00Z_MSC_GDPS_Pressure_Sfc_LatLon0.15_PT129H.grib2 2026-05-05 04:27 1.1M
20260505T00Z_MSC_GDPS_RadiativeTemp_Sfc_LatLon0.15_PT129H.grib2 2026-05-05 04:27 499K
20260505T00Z_MSC_GDPS_Rain-Accum1h_Sfc_LatLon0.15_PT129H.grib2 2026-05-05 04:27 1.7M
20260505T00Z_MSC_GDPS_Rain-Accum3h_Sfc_LatLon0.15_PT129H.grib2 2026-05-05 04:27 1.9M
20260505T00Z_MSC_GDPS_Rain-Accum_Sfc_LatLon0.15_PT129H.grib2 2026-05-05 04:27 4.1M
20260505T00Z_MSC_GDPS_RelativeHumidity_AGL-2m_LatLon0.15_PT129H.grib2 2026-05-05 04:27 1.0M
20260505T00Z_MSC_GDPS_RelativeHumidity_IsbL-0010_LatLon0.15_PT129H.grib2 2026-05-05 04:27 152K
20260505T00Z_MSC_GDPS_RelativeHumidity_IsbL-0020_LatLon0.15_PT129H.grib2 2026-05-05 04:27 121K
20260505T00Z_MSC_GDPS_RelativeHumidity_IsbL-0030_LatLon0.15_PT129H.grib2 2026-05-05 04:27 188K
20260505T00Z_MSC_GDPS_RelativeHumidity_IsbL-0050_LatLon0.15_PT129H.grib2 2026-05-05 04:27 339K
20260505T00Z_MSC_GDPS_RelativeHumidity_IsbL-0100_LatLon0.15_PT129H.grib2 2026-05-05 04:27 503K
20260505T00Z_MSC_GDPS_RelativeHumidity_IsbL-0150_LatLon0.15_PT129H.grib2 2026-05-05 04:27 679K
20260505T00Z_MSC_GDPS_RelativeHumidity_IsbL-0175_LatLon0.15_PT129H.grib2 2026-05-05 04:27 616K
20260505T00Z_MSC_GDPS_RelativeHumidity_IsbL-0200_LatLon0.15_PT129H.grib2 2026-05-05 04:27 712K
20260505T00Z_MSC_GDPS_RelativeHumidity_IsbL-0225_LatLon0.15_PT129H.grib2 2026-05-05 04:27 787K
20260505T00Z_MSC_GDPS_RelativeHumidity_IsbL-0250_LatLon0.15_PT129H.grib2 2026-05-05 04:27 861K
20260505T00Z_MSC_GDPS_RelativeHumidity_IsbL-0275_LatLon0.15_PT129H.grib2 2026-05-05 04:27 882K
20260505T00Z_MSC_GDPS_RelativeHumidity_IsbL-0300_LatLon0.15_PT129H.grib2 2026-05-05 04:27 921K
20260505T00Z_MSC_GDPS_RelativeHumidity_IsbL-0350_LatLon0.15_PT129H.grib2 2026-05-05 04:27 935K
20260505T00Z_MSC_GDPS_RelativeHumidity_IsbL-0400_LatLon0.15_PT129H.grib2 2026-05-05 04:27 953K
20260505T00Z_MSC_GDPS_RelativeHumidity_IsbL-0450_LatLon0.15_PT129H.grib2 2026-05-05 04:27 971K
20260505T00Z_MSC_GDPS_RelativeHumidity_IsbL-0500_LatLon0.15_PT129H.grib2 2026-05-05 04:27 1.0M
20260505T00Z_MSC_GDPS_RelativeHumidity_IsbL-0550_LatLon0.15_PT129H.grib2 2026-05-05 04:27 1.0M
20260505T00Z_MSC_GDPS_RelativeHumidity_IsbL-0600_LatLon0.15_PT129H.grib2 2026-05-05 04:27 1.1M
20260505T00Z_MSC_GDPS_RelativeHumidity_IsbL-0650_LatLon0.15_PT129H.grib2 2026-05-05 04:27 1.1M
20260505T00Z_MSC_GDPS_RelativeHumidity_IsbL-0700_LatLon0.15_PT129H.grib2 2026-05-05 04:27 1.1M
20260505T00Z_MSC_GDPS_RelativeHumidity_IsbL-0750_LatLon0.15_PT129H.grib2 2026-05-05 04:27 1.1M
20260505T00Z_MSC_GDPS_RelativeHumidity_IsbL-0800_LatLon0.15_PT129H.grib2 2026-05-05 04:27 1.2M
20260505T00Z_MSC_GDPS_RelativeHumidity_IsbL-0850_LatLon0.15_PT129H.grib2 2026-05-05 04:27 1.3M
20260505T00Z_MSC_GDPS_RelativeHumidity_IsbL-0875_LatLon0.15_PT129H.grib2 2026-05-05 04:27 1.2M
20260505T00Z_MSC_GDPS_RelativeHumidity_IsbL-0900_LatLon0.15_PT129H.grib2 2026-05-05 04:27 1.2M
20260505T00Z_MSC_GDPS_RelativeHumidity_IsbL-0925_LatLon0.15_PT129H.grib2 2026-05-05 04:27 1.2M
20260505T00Z_MSC_GDPS_RelativeHumidity_IsbL-0950_LatLon0.15_PT129H.grib2 2026-05-05 04:27 1.2M
20260505T00Z_MSC_GDPS_RelativeHumidity_IsbL-0970_LatLon0.15_PT129H.grib2 2026-05-05 04:27 1.2M
20260505T00Z_MSC_GDPS_RelativeHumidity_IsbL-0985_LatLon0.15_PT129H.grib2 2026-05-05 04:27 1.1M
20260505T00Z_MSC_GDPS_RelativeHumidity_IsbL-1000_LatLon0.15_PT129H.grib2 2026-05-05 04:27 1.1M
20260505T00Z_MSC_GDPS_RelativeHumidity_IsbL-1015_LatLon0.15_PT129H.grib2 2026-05-05 04:27 1.0M
20260505T00Z_MSC_GDPS_RelativeVorticity_IsbL-0200_LatLon0.15_PT129H.grib2 2026-05-05 04:27 1.5M
20260505T00Z_MSC_GDPS_RelativeVorticity_IsbL-0250_LatLon0.15_PT129H.grib2 2026-05-05 04:27 1.3M
20260505T00Z_MSC_GDPS_RelativeVorticity_IsbL-0500_LatLon0.15_PT129H.grib2 2026-05-05 04:27 1.5M
20260505T00Z_MSC_GDPS_RelativeVorticity_IsbL-0700_LatLon0.15_PT129H.grib2 2026-05-05 04:27 1.3M
20260505T00Z_MSC_GDPS_RelativeVorticity_IsbL-0850_LatLon0.15_PT129H.grib2 2026-05-05 04:27 1.6M
20260505T00Z_MSC_GDPS_Runoff-Accum_Sfc_LatLon0.15_PT129H.grib2 2026-05-05 04:27 148K
20260505T00Z_MSC_GDPS_SensibleHeatNetFlux_Sfc_LatLon0.15_PT129H.grib2 2026-05-05 04:27 501K
20260505T00Z_MSC_GDPS_ShowalterIndex_IsbL-0500_LatLon0.15_PT129H.grib2 2026-05-05 04:27 6.2M
20260505T00Z_MSC_GDPS_Snow-Accum1h_Sfc_LatLon0.15_PT129H.grib2 2026-05-05 04:27 1.2M
20260505T00Z_MSC_GDPS_Snow-Accum3h_Sfc_LatLon0.15_PT129H.grib2 2026-05-05 04:27 1.2M
20260505T00Z_MSC_GDPS_Snow-Accum_Sfc_LatLon0.15_PT129H.grib2 2026-05-05 04:27 2.1M
20260505T00Z_MSC_GDPS_SnowDensity_Sfc_LatLon0.15_PT129H.grib2 2026-05-05 04:27 259K
20260505T00Z_MSC_GDPS_SnowDepth_Sfc_LatLon0.15_PT129H.grib2 2026-05-05 04:27 1.7M
20260505T00Z_MSC_GDPS_SoilTemp_DBS-0to10cm_LatLon0.15_PT129H.grib2 2026-05-05 04:27 514K
20260505T00Z_MSC_GDPS_SoilTemp_Sfc_LatLon0.15_PT129H.grib2 2026-05-05 04:27 593K
20260505T00Z_MSC_GDPS_SoilVolumetricIceContent_Sfc_LatLon0.15_PT129H.grib2 2026-05-05 04:27 178K
20260505T00Z_MSC_GDPS_SoilVolumetricWaterContent_DBS-0to10cm_LatLon0.15_PT129H.grib2 2026-05-05 04:27 601K
20260505T00Z_MSC_GDPS_SoilVolumetricWaterContent_DBS-0to1cm_LatLon0.15_PT129H.grib2 2026-05-05 04:27 656K
20260505T00Z_MSC_GDPS_SpecificHumidity_AGL-120m_LatLon0.15_PT129H.grib2 2026-05-05 04:27 1.1M
20260505T00Z_MSC_GDPS_SpecificHumidity_AGL-2m_LatLon0.15_PT129H.grib2 2026-05-05 04:27 1.2M
20260505T00Z_MSC_GDPS_SpecificHumidity_AGL-40m_LatLon0.15_PT129H.grib2 2026-05-05 04:27 1.1M
20260505T00Z_MSC_GDPS_SpecificHumidity_AGL-80m_LatLon0.15_PT129H.grib2 2026-05-05 04:27 1.1M
20260505T00Z_MSC_GDPS_SpecificHumidity_IsbL-0001_LatLon0.15_PT129H.grib2 2026-05-05 04:27 1.2M
20260505T00Z_MSC_GDPS_SpecificHumidity_IsbL-0005_LatLon0.15_PT129H.grib2 2026-05-05 04:27 1.1M
20260505T00Z_MSC_GDPS_SpecificHumidity_IsbL-0010_LatLon0.15_PT129H.grib2 2026-05-05 04:27 1.2M
20260505T00Z_MSC_GDPS_SpecificHumidity_IsbL-0020_LatLon0.15_PT129H.grib2 2026-05-05 04:27 1.2M
20260505T00Z_MSC_GDPS_SpecificHumidity_IsbL-0030_LatLon0.15_PT129H.grib2 2026-05-05 04:27 1.2M
20260505T00Z_MSC_GDPS_SpecificHumidity_IsbL-0050_LatLon0.15_PT129H.grib2 2026-05-05 04:27 1.5M
20260505T00Z_MSC_GDPS_SpecificHumidity_IsbL-0100_LatLon0.15_PT129H.grib2 2026-05-05 04:27 1.2M
20260505T00Z_MSC_GDPS_SpecificHumidity_IsbL-0150_LatLon0.15_PT129H.grib2 2026-05-05 04:27 1.3M
20260505T00Z_MSC_GDPS_SpecificHumidity_IsbL-0175_LatLon0.15_PT129H.grib2 2026-05-05 04:27 1.3M
20260505T00Z_MSC_GDPS_SpecificHumidity_IsbL-0200_LatLon0.15_PT129H.grib2 2026-05-05 04:27 1.3M
20260505T00Z_MSC_GDPS_SpecificHumidity_IsbL-0225_LatLon0.15_PT129H.grib2 2026-05-05 04:27 1.3M
20260505T00Z_MSC_GDPS_SpecificHumidity_IsbL-0250_LatLon0.15_PT129H.grib2 2026-05-05 04:27 1.2M
20260505T00Z_MSC_GDPS_SpecificHumidity_IsbL-0275_LatLon0.15_PT129H.grib2 2026-05-05 04:27 1.1M
20260505T00Z_MSC_GDPS_SpecificHumidity_IsbL-0300_LatLon0.15_PT129H.grib2 2026-05-05 04:27 1.3M
20260505T00Z_MSC_GDPS_SpecificHumidity_IsbL-0350_LatLon0.15_PT129H.grib2 2026-05-05 04:27 1.2M
20260505T00Z_MSC_GDPS_SpecificHumidity_IsbL-0400_LatLon0.15_PT129H.grib2 2026-05-05 04:27 1.4M
20260505T00Z_MSC_GDPS_SpecificHumidity_IsbL-0450_LatLon0.15_PT129H.grib2 2026-05-05 04:27 1.3M
20260505T00Z_MSC_GDPS_SpecificHumidity_IsbL-0500_LatLon0.15_PT129H.grib2 2026-05-05 04:27 1.4M
20260505T00Z_MSC_GDPS_SpecificHumidity_IsbL-0550_LatLon0.15_PT129H.grib2 2026-05-05 04:27 1.6M
20260505T00Z_MSC_GDPS_SpecificHumidity_IsbL-0600_LatLon0.15_PT129H.grib2 2026-05-05 04:27 1.4M
20260505T00Z_MSC_GDPS_SpecificHumidity_IsbL-0650_LatLon0.15_PT129H.grib2 2026-05-05 04:27 1.5M
20260505T00Z_MSC_GDPS_SpecificHumidity_IsbL-0700_LatLon0.15_PT129H.grib2 2026-05-05 04:27 1.6M
20260505T00Z_MSC_GDPS_SpecificHumidity_IsbL-0750_LatLon0.15_PT129H.grib2 2026-05-05 04:27 1.8M
20260505T00Z_MSC_GDPS_SpecificHumidity_IsbL-0800_LatLon0.15_PT129H.grib2 2026-05-05 04:27 1.9M
20260505T00Z_MSC_GDPS_SpecificHumidity_IsbL-0850_LatLon0.15_PT129H.grib2 2026-05-05 04:27 2.0M
20260505T00Z_MSC_GDPS_SpecificHumidity_IsbL-0875_LatLon0.15_PT129H.grib2 2026-05-05 04:27 2.0M
20260505T00Z_MSC_GDPS_SpecificHumidity_IsbL-0900_LatLon0.15_PT129H.grib2 2026-05-05 04:27 1.6M
20260505T00Z_MSC_GDPS_SpecificHumidity_IsbL-0925_LatLon0.15_PT129H.grib2 2026-05-05 04:27 1.6M
20260505T00Z_MSC_GDPS_SpecificHumidity_IsbL-0950_LatLon0.15_PT129H.grib2 2026-05-05 04:27 1.6M
20260505T00Z_MSC_GDPS_SpecificHumidity_IsbL-0970_LatLon0.15_PT129H.grib2 2026-05-05 04:27 1.5M
20260505T00Z_MSC_GDPS_SpecificHumidity_IsbL-0985_LatLon0.15_PT129H.grib2 2026-05-05 04:27 1.5M
20260505T00Z_MSC_GDPS_SpecificHumidity_IsbL-1000_LatLon0.15_PT129H.grib2 2026-05-05 04:27 1.5M
20260505T00Z_MSC_GDPS_SpecificHumidity_IsbL-1015_LatLon0.15_PT129H.grib2 2026-05-05 04:27 1.5M
20260505T00Z_MSC_GDPS_SpecificHumidity_Sfc_LatLon0.15_PT129H.grib2 2026-05-05 04:27 682K
20260505T00Z_MSC_GDPS_Thickness_IsbL-0850to0700_LatLon0.15_PT129H.grib2 2026-05-05 04:27 474K
20260505T00Z_MSC_GDPS_Thickness_IsbL-1000to0500_LatLon0.15_PT129H.grib2 2026-05-05 04:27 378K
20260505T00Z_MSC_GDPS_Thickness_IsbL-1000to0850_LatLon0.15_PT129H.grib2 2026-05-05 04:27 495K
20260505T00Z_MSC_GDPS_TotalCloudCover_Sfc_LatLon0.15_PT129H.grib2 2026-05-05 04:27 823K
20260505T00Z_MSC_GDPS_TotalTotalsIndex_Sfc_LatLon0.15_PT129H.grib2 2026-05-05 04:27 6.2M
20260505T00Z_MSC_GDPS_UVIndex-ClearSky_Sfc_LatLon0.15_PT129H.grib2 2026-05-05 04:47 1.1M
20260505T00Z_MSC_GDPS_UVIndex_Sfc_LatLon0.15_PT129H.grib2 2026-05-05 04:47 1.5M
20260505T00Z_MSC_GDPS_UpwardLongwaveRadiationFlux_NTAtm_LatLon0.15_PT129H.grib2 2026-05-05 04:27 841K
20260505T00Z_MSC_GDPS_VerticalVelocity_IsbL-0200_LatLon0.15_PT129H.grib2 2026-05-05 04:27 949K
20260505T00Z_MSC_GDPS_VerticalVelocity_IsbL-0250_LatLon0.15_PT129H.grib2 2026-05-05 04:27 1.1M
20260505T00Z_MSC_GDPS_VerticalVelocity_IsbL-0500_LatLon0.15_PT129H.grib2 2026-05-05 04:27 1.0M
20260505T00Z_MSC_GDPS_VerticalVelocity_IsbL-0600_LatLon0.15_PT129H.grib2 2026-05-05 04:27 1.1M
20260505T00Z_MSC_GDPS_VerticalVelocity_IsbL-0700_LatLon0.15_PT129H.grib2 2026-05-05 04:27 1.1M
20260505T00Z_MSC_GDPS_VerticalVelocity_IsbL-0850_LatLon0.15_PT129H.grib2 2026-05-05 04:27 1.6M
20260505T00Z_MSC_GDPS_WindChill_Sfc_LatLon0.15_PT129H.grib2 2026-05-05 04:27 5.3M
20260505T00Z_MSC_GDPS_WindDir_AGL-10m_LatLon0.15_PT129H.grib2 2026-05-05 04:27 1.3M
20260505T00Z_MSC_GDPS_WindDir_AGL-120m_LatLon0.15_PT129H.grib2 2026-05-05 04:27 1.3M
20260505T00Z_MSC_GDPS_WindDir_AGL-40m_LatLon0.15_PT129H.grib2 2026-05-05 04:27 1.3M
20260505T00Z_MSC_GDPS_WindDir_AGL-80m_LatLon0.15_PT129H.grib2 2026-05-05 04:27 1.3M
20260505T00Z_MSC_GDPS_WindDir_IsbL-0001_LatLon0.15_PT129H.grib2 2026-05-05 04:27 664K
20260505T00Z_MSC_GDPS_WindDir_IsbL-0005_LatLon0.15_PT129H.grib2 2026-05-05 04:27 823K
20260505T00Z_MSC_GDPS_WindDir_IsbL-0010_LatLon0.15_PT129H.grib2 2026-05-05 04:27 841K
20260505T00Z_MSC_GDPS_WindDir_IsbL-0020_LatLon0.15_PT129H.grib2 2026-05-05 04:27 948K
20260505T00Z_MSC_GDPS_WindDir_IsbL-0030_LatLon0.15_PT129H.grib2 2026-05-05 04:27 942K
20260505T00Z_MSC_GDPS_WindDir_IsbL-0050_LatLon0.15_PT129H.grib2 2026-05-05 04:27 946K
20260505T00Z_MSC_GDPS_WindDir_IsbL-0100_LatLon0.15_PT129H.grib2 2026-05-05 04:27 1.0M
20260505T00Z_MSC_GDPS_WindDir_IsbL-0150_LatLon0.15_PT129H.grib2 2026-05-05 04:27 1.0M
20260505T00Z_MSC_GDPS_WindDir_IsbL-0175_LatLon0.15_PT129H.grib2 2026-05-05 04:27 1.0M
20260505T00Z_MSC_GDPS_WindDir_IsbL-0200_LatLon0.15_PT129H.grib2 2026-05-05 04:27 1.1M
20260505T00Z_MSC_GDPS_WindDir_IsbL-0225_LatLon0.15_PT129H.grib2 2026-05-05 04:27 1.1M
20260505T00Z_MSC_GDPS_WindDir_IsbL-0250_LatLon0.15_PT129H.grib2 2026-05-05 04:27 1.1M
20260505T00Z_MSC_GDPS_WindDir_IsbL-0275_LatLon0.15_PT129H.grib2 2026-05-05 04:27 1.2M
20260505T00Z_MSC_GDPS_WindDir_IsbL-0300_LatLon0.15_PT129H.grib2 2026-05-05 04:27 1.2M
20260505T00Z_MSC_GDPS_WindDir_IsbL-0350_LatLon0.15_PT129H.grib2 2026-05-05 04:27 1.2M
20260505T00Z_MSC_GDPS_WindDir_IsbL-0400_LatLon0.15_PT129H.grib2 2026-05-05 04:27 1.3M
20260505T00Z_MSC_GDPS_WindDir_IsbL-0450_LatLon0.15_PT129H.grib2 2026-05-05 04:27 1.3M
20260505T00Z_MSC_GDPS_WindDir_IsbL-0500_LatLon0.15_PT129H.grib2 2026-05-05 04:27 1.4M
20260505T00Z_MSC_GDPS_WindDir_IsbL-0550_LatLon0.15_PT129H.grib2 2026-05-05 04:27 1.4M
20260505T00Z_MSC_GDPS_WindDir_IsbL-0600_LatLon0.15_PT129H.grib2 2026-05-05 04:27 1.4M
20260505T00Z_MSC_GDPS_WindDir_IsbL-0650_LatLon0.15_PT129H.grib2 2026-05-05 04:27 1.5M
20260505T00Z_MSC_GDPS_WindDir_IsbL-0700_LatLon0.15_PT129H.grib2 2026-05-05 04:27 1.6M
20260505T00Z_MSC_GDPS_WindDir_IsbL-0750_LatLon0.15_PT129H.grib2 2026-05-05 04:27 1.7M
20260505T00Z_MSC_GDPS_WindDir_IsbL-0800_LatLon0.15_PT129H.grib2 2026-05-05 04:27 1.8M
20260505T00Z_MSC_GDPS_WindDir_IsbL-0850_LatLon0.15_PT129H.grib2 2026-05-05 04:27 1.9M
20260505T00Z_MSC_GDPS_WindDir_IsbL-0875_LatLon0.15_PT129H.grib2 2026-05-05 04:27 1.9M
20260505T00Z_MSC_GDPS_WindDir_IsbL-0900_LatLon0.15_PT129H.grib2 2026-05-05 04:27 1.9M
20260505T00Z_MSC_GDPS_WindDir_IsbL-0925_LatLon0.15_PT129H.grib2 2026-05-05 04:27 1.9M
20260505T00Z_MSC_GDPS_WindDir_IsbL-0950_LatLon0.15_PT129H.grib2 2026-05-05 04:27 1.9M
20260505T00Z_MSC_GDPS_WindDir_IsbL-0970_LatLon0.15_PT129H.grib2 2026-05-05 04:27 1.9M
20260505T00Z_MSC_GDPS_WindDir_IsbL-0985_LatLon0.15_PT129H.grib2 2026-05-05 04:27 2.0M
20260505T00Z_MSC_GDPS_WindDir_IsbL-1000_LatLon0.15_PT129H.grib2 2026-05-05 04:27 2.0M
20260505T00Z_MSC_GDPS_WindDir_IsbL-1015_LatLon0.15_PT129H.grib2 2026-05-05 04:27 2.0M
20260505T00Z_MSC_GDPS_WindGust-Max_AGL-10m_LatLon0.15_PT129H.grib2 2026-05-05 04:27 2.2M
20260505T00Z_MSC_GDPS_WindGust-Min_AGL-10m_LatLon0.15_PT129H.grib2 2026-05-05 04:27 2.2M
20260505T00Z_MSC_GDPS_WindGust_AGL-10m_LatLon0.15_PT129H.grib2 2026-05-05 04:27 2.2M
20260505T00Z_MSC_GDPS_WindSpeed_AGL-10m_LatLon0.15_PT129H.grib2 2026-05-05 04:27 1.1M
20260505T00Z_MSC_GDPS_WindSpeed_AGL-120m_LatLon0.15_PT129H.grib2 2026-05-05 04:27 1.2M
20260505T00Z_MSC_GDPS_WindSpeed_AGL-40m_LatLon0.15_PT129H.grib2 2026-05-05 04:27 1.2M
20260505T00Z_MSC_GDPS_WindSpeed_AGL-80m_LatLon0.15_PT129H.grib2 2026-05-05 04:27 1.2M
20260505T00Z_MSC_GDPS_WindSpeed_IsbL-0001_LatLon0.15_PT129H.grib2 2026-05-05 04:27 658K
20260505T00Z_MSC_GDPS_WindSpeed_IsbL-0005_LatLon0.15_PT129H.grib2 2026-05-05 04:27 695K
20260505T00Z_MSC_GDPS_WindSpeed_IsbL-0010_LatLon0.15_PT129H.grib2 2026-05-05 04:27 631K
20260505T00Z_MSC_GDPS_WindSpeed_IsbL-0020_LatLon0.15_PT129H.grib2 2026-05-05 04:27 667K
20260505T00Z_MSC_GDPS_WindSpeed_IsbL-0030_LatLon0.15_PT129H.grib2 2026-05-05 04:27 868K
20260505T00Z_MSC_GDPS_WindSpeed_IsbL-0050_LatLon0.15_PT129H.grib2 2026-05-05 04:27 901K
20260505T00Z_MSC_GDPS_WindSpeed_IsbL-0100_LatLon0.15_PT129H.grib2 2026-05-05 04:27 1.1M
20260505T00Z_MSC_GDPS_WindSpeed_IsbL-0150_LatLon0.15_PT129H.grib2 2026-05-05 04:27 946K
20260505T00Z_MSC_GDPS_WindSpeed_IsbL-0175_LatLon0.15_PT129H.grib2 2026-05-05 04:27 1.0M
20260505T00Z_MSC_GDPS_WindSpeed_IsbL-0200_LatLon0.15_PT129H.grib2 2026-05-05 04:27 1.1M
20260505T00Z_MSC_GDPS_WindSpeed_IsbL-0225_LatLon0.15_PT129H.grib2 2026-05-05 04:27 1.1M
20260505T00Z_MSC_GDPS_WindSpeed_IsbL-0250_LatLon0.15_PT129H.grib2 2026-05-05 04:27 1.1M
20260505T00Z_MSC_GDPS_WindSpeed_IsbL-0275_LatLon0.15_PT129H.grib2 2026-05-05 04:27 1.1M
20260505T00Z_MSC_GDPS_WindSpeed_IsbL-0300_LatLon0.15_PT129H.grib2 2026-05-05 04:27 1.1M
20260505T00Z_MSC_GDPS_WindSpeed_IsbL-0350_LatLon0.15_PT129H.grib2 2026-05-05 04:27 1.1M
20260505T00Z_MSC_GDPS_WindSpeed_IsbL-0400_LatLon0.15_PT129H.grib2 2026-05-05 04:27 1.1M
20260505T00Z_MSC_GDPS_WindSpeed_IsbL-0450_LatLon0.15_PT129H.grib2 2026-05-05 04:27 1.1M
20260505T00Z_MSC_GDPS_WindSpeed_IsbL-0500_LatLon0.15_PT129H.grib2 2026-05-05 04:27 1.1M
20260505T00Z_MSC_GDPS_WindSpeed_IsbL-0550_LatLon0.15_PT129H.grib2 2026-05-05 04:27 1.1M
20260505T00Z_MSC_GDPS_WindSpeed_IsbL-0600_LatLon0.15_PT129H.grib2 2026-05-05 04:27 1.1M
20260505T00Z_MSC_GDPS_WindSpeed_IsbL-0650_LatLon0.15_PT129H.grib2 2026-05-05 04:27 1.2M
20260505T00Z_MSC_GDPS_WindSpeed_IsbL-0700_LatLon0.15_PT129H.grib2 2026-05-05 04:27 1.5M
20260505T00Z_MSC_GDPS_WindSpeed_IsbL-0750_LatLon0.15_PT129H.grib2 2026-05-05 04:27 1.6M
20260505T00Z_MSC_GDPS_WindSpeed_IsbL-0800_LatLon0.15_PT129H.grib2 2026-05-05 04:27 1.6M
20260505T00Z_MSC_GDPS_WindSpeed_IsbL-0850_LatLon0.15_PT129H.grib2 2026-05-05 04:27 1.7M
20260505T00Z_MSC_GDPS_WindSpeed_IsbL-0875_LatLon0.15_PT129H.grib2 2026-05-05 04:27 1.9M
20260505T00Z_MSC_GDPS_WindSpeed_IsbL-0900_LatLon0.15_PT129H.grib2 2026-05-05 04:27 1.9M
20260505T00Z_MSC_GDPS_WindSpeed_IsbL-0925_LatLon0.15_PT129H.grib2 2026-05-05 04:27 1.8M
20260505T00Z_MSC_GDPS_WindSpeed_IsbL-0950_LatLon0.15_PT129H.grib2 2026-05-05 04:27 1.9M
20260505T00Z_MSC_GDPS_WindSpeed_IsbL-0970_LatLon0.15_PT129H.grib2 2026-05-05 04:27 1.9M
20260505T00Z_MSC_GDPS_WindSpeed_IsbL-0985_LatLon0.15_PT129H.grib2 2026-05-05 04:27 1.9M
20260505T00Z_MSC_GDPS_WindSpeed_IsbL-1000_LatLon0.15_PT129H.grib2 2026-05-05 04:27 1.8M
20260505T00Z_MSC_GDPS_WindSpeed_IsbL-1015_LatLon0.15_PT129H.grib2 2026-05-05 04:27 1.8M
20260505T00Z_MSC_GDPS_WindU_AGL-10m_LatLon0.15_PT129H.grib2 2026-05-05 04:27 1.3M
20260505T00Z_MSC_GDPS_WindU_AGL-120m_LatLon0.15_PT129H.grib2 2026-05-05 04:27 961K
20260505T00Z_MSC_GDPS_WindU_AGL-40m_LatLon0.15_PT129H.grib2 2026-05-05 04:27 957K
20260505T00Z_MSC_GDPS_WindU_AGL-80m_LatLon0.15_PT129H.grib2 2026-05-05 04:27 961K
20260505T00Z_MSC_GDPS_WindU_IsbL-0001_LatLon0.15_PT129H.grib2 2026-05-05 04:27 506K
20260505T00Z_MSC_GDPS_WindU_IsbL-0005_LatLon0.15_PT129H.grib2 2026-05-05 04:27 690K
20260505T00Z_MSC_GDPS_WindU_IsbL-0010_LatLon0.15_PT129H.grib2 2026-05-05 04:27 704K
20260505T00Z_MSC_GDPS_WindU_IsbL-0020_LatLon0.15_PT129H.grib2 2026-05-05 04:27 732K
20260505T00Z_MSC_GDPS_WindU_IsbL-0030_LatLon0.15_PT129H.grib2 2026-05-05 04:27 742K
20260505T00Z_MSC_GDPS_WindU_IsbL-0050_LatLon0.15_PT129H.grib2 2026-05-05 04:27 766K
20260505T00Z_MSC_GDPS_WindU_IsbL-0100_LatLon0.15_PT129H.grib2 2026-05-05 04:27 929K
20260505T00Z_MSC_GDPS_WindU_IsbL-0150_LatLon0.15_PT129H.grib2 2026-05-05 04:27 1.0M
20260505T00Z_MSC_GDPS_WindU_IsbL-0175_LatLon0.15_PT129H.grib2 2026-05-05 04:27 1.0M
20260505T00Z_MSC_GDPS_WindU_IsbL-0200_LatLon0.15_PT129H.grib2 2026-05-05 04:27 845K
20260505T00Z_MSC_GDPS_WindU_IsbL-0225_LatLon0.15_PT129H.grib2 2026-05-05 04:27 855K
20260505T00Z_MSC_GDPS_WindU_IsbL-0250_LatLon0.15_PT129H.grib2 2026-05-05 04:27 916K
20260505T00Z_MSC_GDPS_WindU_IsbL-0275_LatLon0.15_PT129H.grib2 2026-05-05 04:27 882K
20260505T00Z_MSC_GDPS_WindU_IsbL-0300_LatLon0.15_PT129H.grib2 2026-05-05 04:27 872K
20260505T00Z_MSC_GDPS_WindU_IsbL-0350_LatLon0.15_PT129H.grib2 2026-05-05 04:27 886K
20260505T00Z_MSC_GDPS_WindU_IsbL-0400_LatLon0.15_PT129H.grib2 2026-05-05 04:27 1.1M
20260505T00Z_MSC_GDPS_WindU_IsbL-0450_LatLon0.15_PT129H.grib2 2026-05-05 04:27 1.1M
20260505T00Z_MSC_GDPS_WindU_IsbL-0500_LatLon0.15_PT129H.grib2 2026-05-05 04:27 1.1M
20260505T00Z_MSC_GDPS_WindU_IsbL-0550_LatLon0.15_PT129H.grib2 2026-05-05 04:27 1.1M
20260505T00Z_MSC_GDPS_WindU_IsbL-0600_LatLon0.15_PT129H.grib2 2026-05-05 04:27 1.1M
20260505T00Z_MSC_GDPS_WindU_IsbL-0650_LatLon0.15_PT129H.grib2 2026-05-05 04:27 1.2M
20260505T00Z_MSC_GDPS_WindU_IsbL-0700_LatLon0.15_PT129H.grib2 2026-05-05 04:27 1.2M
20260505T00Z_MSC_GDPS_WindU_IsbL-0750_LatLon0.15_PT129H.grib2 2026-05-05 04:27 1.3M
20260505T00Z_MSC_GDPS_WindU_IsbL-0800_LatLon0.15_PT129H.grib2 2026-05-05 04:27 1.4M
20260505T00Z_MSC_GDPS_WindU_IsbL-0850_LatLon0.15_PT129H.grib2 2026-05-05 04:27 1.4M
20260505T00Z_MSC_GDPS_WindU_IsbL-0875_LatLon0.15_PT129H.grib2 2026-05-05 04:27 1.4M
20260505T00Z_MSC_GDPS_WindU_IsbL-0900_LatLon0.15_PT129H.grib2 2026-05-05 04:27 1.5M
20260505T00Z_MSC_GDPS_WindU_IsbL-0925_LatLon0.15_PT129H.grib2 2026-05-05 04:27 1.4M
20260505T00Z_MSC_GDPS_WindU_IsbL-0950_LatLon0.15_PT129H.grib2 2026-05-05 04:27 1.4M
20260505T00Z_MSC_GDPS_WindU_IsbL-0970_LatLon0.15_PT129H.grib2 2026-05-05 04:27 1.4M
20260505T00Z_MSC_GDPS_WindU_IsbL-0985_LatLon0.15_PT129H.grib2 2026-05-05 04:27 1.4M
20260505T00Z_MSC_GDPS_WindU_IsbL-1000_LatLon0.15_PT129H.grib2 2026-05-05 04:27 1.4M
20260505T00Z_MSC_GDPS_WindU_IsbL-1015_LatLon0.15_PT129H.grib2 2026-05-05 04:27 1.3M
20260505T00Z_MSC_GDPS_WindV_AGL-10m_LatLon0.15_PT129H.grib2 2026-05-05 04:27 1.5M
20260505T00Z_MSC_GDPS_WindV_AGL-120m_LatLon0.15_PT129H.grib2 2026-05-05 04:27 963K
20260505T00Z_MSC_GDPS_WindV_AGL-40m_LatLon0.15_PT129H.grib2 2026-05-05 04:27 958K
20260505T00Z_MSC_GDPS_WindV_AGL-80m_LatLon0.15_PT129H.grib2 2026-05-05 04:27 963K
20260505T00Z_MSC_GDPS_WindV_IsbL-0001_LatLon0.15_PT129H.grib2 2026-05-05 04:27 790K
20260505T00Z_MSC_GDPS_WindV_IsbL-0005_LatLon0.15_PT129H.grib2 2026-05-05 04:27 767K
20260505T00Z_MSC_GDPS_WindV_IsbL-0010_LatLon0.15_PT129H.grib2 2026-05-05 04:27 796K
20260505T00Z_MSC_GDPS_WindV_IsbL-0020_LatLon0.15_PT129H.grib2 2026-05-05 04:27 933K
20260505T00Z_MSC_GDPS_WindV_IsbL-0030_LatLon0.15_PT129H.grib2 2026-05-05 04:27 940K
20260505T00Z_MSC_GDPS_WindV_IsbL-0050_LatLon0.15_PT129H.grib2 2026-05-05 04:27 901K
20260505T00Z_MSC_GDPS_WindV_IsbL-0100_LatLon0.15_PT129H.grib2 2026-05-05 04:27 860K
20260505T00Z_MSC_GDPS_WindV_IsbL-0150_LatLon0.15_PT129H.grib2 2026-05-05 04:27 1.0M
20260505T00Z_MSC_GDPS_WindV_IsbL-0175_LatLon0.15_PT129H.grib2 2026-05-05 04:27 1.0M
20260505T00Z_MSC_GDPS_WindV_IsbL-0200_LatLon0.15_PT129H.grib2 2026-05-05 04:27 842K
20260505T00Z_MSC_GDPS_WindV_IsbL-0225_LatLon0.15_PT129H.grib2 2026-05-05 04:27 908K
20260505T00Z_MSC_GDPS_WindV_IsbL-0250_LatLon0.15_PT129H.grib2 2026-05-05 04:27 908K
20260505T00Z_MSC_GDPS_WindV_IsbL-0275_LatLon0.15_PT129H.grib2 2026-05-05 04:27 933K
20260505T00Z_MSC_GDPS_WindV_IsbL-0300_LatLon0.15_PT129H.grib2 2026-05-05 04:27 924K
20260505T00Z_MSC_GDPS_WindV_IsbL-0350_LatLon0.15_PT129H.grib2 2026-05-05 04:27 935K
20260505T00Z_MSC_GDPS_WindV_IsbL-0400_LatLon0.15_PT129H.grib2 2026-05-05 04:27 878K
20260505T00Z_MSC_GDPS_WindV_IsbL-0450_LatLon0.15_PT129H.grib2 2026-05-05 04:27 879K
20260505T00Z_MSC_GDPS_WindV_IsbL-0500_LatLon0.15_PT129H.grib2 2026-05-05 04:27 885K
20260505T00Z_MSC_GDPS_WindV_IsbL-0550_LatLon0.15_PT129H.grib2 2026-05-05 04:27 1.1M
20260505T00Z_MSC_GDPS_WindV_IsbL-0600_LatLon0.15_PT129H.grib2 2026-05-05 04:27 1.1M
20260505T00Z_MSC_GDPS_WindV_IsbL-0650_LatLon0.15_PT129H.grib2 2026-05-05 04:27 1.2M
20260505T00Z_MSC_GDPS_WindV_IsbL-0700_LatLon0.15_PT129H.grib2 2026-05-05 04:27 1.2M
20260505T00Z_MSC_GDPS_WindV_IsbL-0750_LatLon0.15_PT129H.grib2 2026-05-05 04:27 1.3M
20260505T00Z_MSC_GDPS_WindV_IsbL-0800_LatLon0.15_PT129H.grib2 2026-05-05 04:27 1.3M
20260505T00Z_MSC_GDPS_WindV_IsbL-0850_LatLon0.15_PT129H.grib2 2026-05-05 04:27 1.4M
20260505T00Z_MSC_GDPS_WindV_IsbL-0875_LatLon0.15_PT129H.grib2 2026-05-05 04:27 1.4M
20260505T00Z_MSC_GDPS_WindV_IsbL-0900_LatLon0.15_PT129H.grib2 2026-05-05 04:27 1.4M
20260505T00Z_MSC_GDPS_WindV_IsbL-0925_LatLon0.15_PT129H.grib2 2026-05-05 04:27 1.4M
20260505T00Z_MSC_GDPS_WindV_IsbL-0950_LatLon0.15_PT129H.grib2 2026-05-05 04:27 1.4M
20260505T00Z_MSC_GDPS_WindV_IsbL-0970_LatLon0.15_PT129H.grib2 2026-05-05 04:27 1.4M
20260505T00Z_MSC_GDPS_WindV_IsbL-0985_LatLon0.15_PT129H.grib2 2026-05-05 04:27 1.4M
20260505T00Z_MSC_GDPS_WindV_IsbL-1000_LatLon0.15_PT129H.grib2 2026-05-05 04:27 1.7M
20260505T00Z_MSC_GDPS_WindV_IsbL-1015_LatLon0.15_PT129H.grib2 2026-05-05 04:27 1.6M